Location: Springfield
(37.2150°N, 93.2980°W)
Time: 06:25:49
(UTC-05:00)

Daily predictions for brighter satellites

Satellite Brightness Start Highest point End
(mag) Time Altitude Azimuth Time Altitude Azimuth Time Altitude Azimuth
SL-27 R/B 2.7 20:50:41 10° SSW 20:54:19 80° WNW 20:57:59 10° NNE
Meteor 2-4 Rocket 3.9 20:49:34 10° S 20:55:06 59° E 21:00:49 10° NNE
ALOS 4.3 20:52:45 10° SSW 20:56:46 29° W 21:00:49 10° NW
Cosmos 1437 Rocket 4.3 20:55:10 10° NNE 20:58:05 20° ENE 21:01:01 10° ESE
USA 186 1.7 20:58:35 10° S 21:01:44 82° WSW 21:04:47 10° NNW
Cosmos 1939 Rocket 3.3 21:01:15 10° SE 21:04:53 42° ENE 21:08:33 10° N
Hubble Space Telescope 2.5 21:03:07 10° SSW 21:05:36 15° SSE 21:08:03 10° SE
CZ-4B DEB 3.4 21:04:52 10° SE 21:07:35 33° ENE 21:10:20 10° N
Cosmos 1680 Rocket 4.4 21:03:29 10° SSW 21:08:34 53° WNW 21:13:40 10° N
Envisat 3.0 21:07:59 10° SSE 21:13:02 75° ENE 21:18:07 10° N
Cosmos 405 Rocket 4.2 21:10:25 10° SSW 21:13:59 40° WNW 21:17:39 10° N
Cosmos 2056 Rocket 4.0 21:10:29 10° N 21:15:22 42° ENE 21:19:45 12° SE
Cosmos 1441 Rocket 3.4 21:15:04 10° SSW 21:18:46 73° W 21:22:30 10° N
Cosmos 2074 Rocket 4.2 21:16:29 10° N 21:22:44 77° W 21:29:00 10° S
SAR-Lupe-4 3.5 21:20:56 10° SSE 21:24:29 74° ENE 21:28:05 10° N
CZ-3A R/B 0.7 21:19:58 10° SW 21:25:40 74° SE 21:27:45 10° NE
SJ-11-01 4.3 21:21:51 10° SSE 21:26:31 83° ENE 21:31:15 10° N
Cosmos 1610 Rocket 4.5 21:22:20 10° N 21:28:36 79° E 21:34:45 10° S
Cosmos 2184 Rocket 4.3 21:23:17 10° NNW 21:29:34 71° W 21:35:46 10° S
Cosmos 2181 Rocket 4.5 21:25:42 10° SSE 21:31:37 42° E 21:37:26 10° NNE
NOSS 8 (H) 4.4 21:29:09 10° SSW 21:32:31 58° ESE 21:35:55 10° NE
Helios 1A 3.3 21:28:48 10° S 21:32:59 69° WSW 21:37:11 10° NNW
ISS -0.5 21:31:38 10° NW 21:33:11 13° NNW 21:34:44 10° N
YAOGAN 6 2.6 21:31:01 16° SSE 21:33:40 58° ENE 21:37:07 10° N
OAO 2 Rocket 3.6 21:30:44 10° W 21:35:30 51° SSW 21:38:52 19° SE
Cosmos 1238 Rocket 4.3 21:29:43 10° S 21:36:29 77° W 21:42:50 10° N
Resurs 01 Rocket 3.9 21:34:06 10° SSW 21:37:35 23° W 21:41:06 10° NW
CRYOSAT 2 4.3 21:33:58 10° SSE 21:38:47 73° E 21:43:37 10° N
Meteor 1-23 Rocket 4.5 21:34:56 10° SSW 21:40:28 72° W 21:46:06 10° N
SAR-Lupe-1 4.1 21:37:34 13° S 21:40:40 79° WSW 21:44:16 10° NNW
COSMOS 2487 2.4 21:38:58 10° S 21:42:29 66° ESE 21:46:02 10° NNE
Cosmos 405 3.7 21:39:22 10° NNW 21:42:50 52° W 21:46:13 10° S
Cosmos 2082 Rocket 2.3 21:37:34 10° S 21:43:03 52° ESE 21:48:32 10° NNE
CENTAUR R/B 4.4 21:36:51 10° NW 21:43:58 35° WSW 21:51:20 10° S
ERS-1 Rocket 3.1 21:41:26 17° SSE 21:45:12 61° ENE 21:50:10 10° N
Helios 1B rocket 3.6 21:41:30 10° N 21:45:28 45° WNW 21:49:24 10° SW
Cosmos 921 Rocket 3.2 21:42:25 10° N 21:46:49 56° ENE 21:49:20 23° SE
Cosmos 1452 Rocket 4.4 21:42:15 10° N 21:47:01 34° ENE 21:49:50 20° ESE
Cosmos 2228 3.9 21:43:25 10° NNE 21:47:17 32° ENE 21:49:02 23° ESE
Cosmos 2278 3.8 21:42:50 10° NNW 21:48:29 61° ENE 21:52:12 22° SE
OE (NEXTSAT) 4.4 21:46:28 10° WNW 21:50:01 72° SSW 21:51:37 30° SE
PSLV R/B 4.2 21:51:38 10° W 21:54:24 29° SSW 21:55:08 26° S
Cosmos 1371 Rocket 4.5 21:50:10 10° NNW 21:55:23 59° WSW 21:59:45 14° S
Cosmos 1656 4.0 21:50:27 10° N 21:55:44 48° ENE 21:58:44 24° SE
ASTEX 1 3.7 21:53:14 10° S 21:58:06 66° W 22:02:58 10° NNW
Intercosmos 24 4.2 21:56:53 10° NNW 22:00:23 55° W 22:03:06 17° S
Cosmos 1697 Rocket 3.4 21:56:05 10° N 22:01:18 38° ENE 22:04:02 24° ESE
SPOT 1/Viking Rocket 4.4 21:59:04 23° ESE 22:01:22 34° ENE 22:05:57 10° N
Okean 2 4.4 21:59:11 10° SSW 22:03:05 45° W 22:07:02 10° N
MetOp-A 4.1 22:01:41 24° SSE 22:05:01 72° ENE 22:10:22 10° N
SL-8 Rocket 4.3 21:59:53 10° N 22:06:01 53° E 22:09:24 26° SE
Cosmos 2369 3.7 22:03:46 10° NNW 22:09:31 89° WSW 22:12:47 27° SSE
Cosmos 1892 Rocket 3.8 22:05:41 11° SSW 22:09:58 69° W 22:14:22 10° N
Tiangong 2 2.8 22:09:58 10° WNW 22:12:50 30° N 22:14:31 19° ENE
Cosmos 2366 rocket 4.4 22:07:38 10° N 22:13:28 43° ENE 22:16:01 29° SE
Cosmos 1833 Rocket 2.6 22:08:04 10° SSW 22:13:41 89° ESE 22:19:20 10° NNE
Cosmos 1602 Rocket 4.0 22:14:05 36° ESE 22:14:49 39° E 22:18:51 10° NNE
Cosmos 158 Rocket 4.5 22:15:00 32° SE 22:16:35 40° ESE 22:21:35 10° NNE
MOS 1-B Rocket 4.0 22:16:22 24° SSE 22:20:04 85° WSW 22:26:39 10° NNW
Cosmos 1606 Rocket 4.5 22:18:08 10° NNW 22:22:14 43° W 22:25:01 19° SSW
Cosmos 1271 Rocket 4.3 22:25:39 10° NNE 22:28:35 23° ENE 22:28:35 23° ENE
Cosmos 1959 Rocket 4.5 22:27:22 10° N 22:33:44 74° E 22:36:30 36° SSE
Cosmos 1809 Rocket 4.4 22:31:27 10° N 22:37:33 74° E 22:39:55 39° SSE
Cosmos 1066 Rocket 4.3 22:34:51 21° SSW 22:38:37 74° W 22:44:17 10° N
Terra 2.6 22:38:44 33° E 22:39:24 35° ENE 22:43:41 10° N
CARTOSAT-1 4.4 22:40:58 34° ENE 22:41:09 34° ENE 22:45:03 10° N
ARGOS 3.4 22:43:31 33° S 22:45:52 63° WSW 22:51:16 10° NNW
Hubble Space Telescope 3.1 22:42:54 10° SW 22:43:26 13° SW 22:43:26 13° SW
H-2A R/B 1.8 22:47:25 52° SSE 22:48:39 87° ENE 22:53:44 10° NNW
SL-08 RB Rocket 3.8 22:48:16 48° SSW 22:49:18 65° W 22:53:46 10° NNW
Cosmos 1980 Rocket 2.4 22:45:29 10° NNW 22:51:04 58° ENE 22:52:22 47° ESE
Cosmos 2058 Rocket 4.5 22:49:28 10° NNW 22:53:27 33° W 22:55:19 23° SW
Meteor 2-16 Rocket 4.5 22:48:04 10° N 22:54:11 63° E 22:55:44 48° SE
Timation 2 Rocket 4.2 22:48:06 10° SSW 22:54:29 71° WNW 23:00:39 10° NNE
SL-08 R/B 4.4 22:48:55 10° N 22:55:03 86° W 22:57:15 43° S
SPOT 5 3.4 22:55:53 36° SW 22:56:56 43° W 23:01:07 10° NNW
Cosmos 2218 Rocket 4.1 22:52:14 10° NNW 22:58:23 71° W 23:00:55 37° SSW
Cosmos 2322 Rocket 3.5 22:58:41 10° N 23:03:28 27° ENE 23:04:45 24° E
TRAILBLAZER 4.5 23:00:42 10° NNW 23:05:20 84° ENE 23:05:27 82° E
H-2A R/B 2.3 23:05:36 61° ENE 23:05:36 61° ENE 23:10:04 10° N
Meteor 1-4 Rocket 3.9 23:04:18 10° NNW 23:07:21 33° W 23:07:21 33° W
Cosmos 1953 3.7 23:04:25 10° NNE 23:07:12 29° NE 23:07:12 29° NE
Cosmos 1269 Rocket 4.4 23:06:26 31° SW 23:08:55 62° WNW 23:14:11 10° N
Cosmos 1766 3.6 23:06:08 10° N 23:09:33 64° NW 23:09:33 64° NW
Lacrosse 5 2.5 23:12:01 42° ENE 23:12:01 42° ENE 23:15:33 10° NE
Cosmos 1812 Rocket 3.5 23:06:29 10° N 23:10:58 79° W 23:10:59 79° WSW
Cosmos 1420 Rocket 4.2 23:07:06 10° NNW 23:12:15 59° WSW 23:13:05 52° SW
Meteor 1-21 4.4 23:16:03 45° SSW 23:17:47 70° W 23:23:32 10° N
Nadezhda 3 Rocket 3.9 23:19:34 57° S 23:21:00 83° E 23:27:22 10° N
Cosmos 1110 Rocket 4.4 23:17:10 10° N 23:22:13 47° ENE 23:22:19 47° ENE
Cosmos 389 Rocket 4.4 23:21:07 10° N 23:22:49 25° NNE 23:22:49 25° NNE
Cosmos 2082 Rocket 4.5 23:23:10 10° WSW 23:27:25 21° NW 23:31:41 10° N
USA 267 4.3 23:21:49 10° ENE 23:25:20 27° E 23:25:20 27° E
Lacrosse 5 rocket 3.2 23:25:39 10° NNW 23:29:35 26° NE 23:30:19 25° NE
Cosmos 1825 Rocket 3.9 23:31:02 59° N 23:31:02 59° N 23:34:35 10° N
Cosmos 1953 Rocket 4.2 23:31:48 49° NNE 23:31:48 49° NNE 23:35:11 10° NNE
NOSS 3-1 (C) 4.4 23:27:53 10° NNW 23:35:26 58° NE 23:38:12 41° ESE
Cosmos 1821 Rocket 4.0 23:30:16 10° N 23:36:34 65° E 23:37:10 62° ESE
Cosmos 1805 4.4 23:33:12 10° NNW 23:35:58 43° NNW 23:35:58 43° NNW
Cosmos 1697 Rocket 4.1 23:40:26 10° NW 23:45:01 26° WSW 23:45:47 26° WSW
Tiangong 2 4.4 23:46:38 10° WNW 23:46:43 10° WNW 23:46:43 10° WNW
Cosmos-2242 4.3 23:47:32 10° N 23:50:17 34° NNE 23:50:17 34° NNE
Cosmos 2251 Rocket 3.6 23:54:35 78° NNW 23:54:35 78° NNW 23:59:40 10° NNE
